#timestamp,LO_Frequency,Hit,StdDev 
1545408015.6,286047001.0,N
1545408035.4,286046999.2,N
1545408055.3,286046999.5,N
1545408075.1,286046999.4,N
1545408095.9,286046996.9,N
1545408115.7,286046996.6,N
1545408135.5,286046999.2,N
1545408155.4,286047001.2,N
1545408175.2,286047000.9,N
1545408195.0,286047000.7,N
1545408196.0,286047000.7,N
1545408215.8,286046999.4,N
1545408235.6,286046997.0,N
1545408255.5,286046997.1,N
1545408275.3,286046997.5,N
1545408295.1,286046997.8,N
1545408315.9,286046996.9,N
1545408335.7,286046997.5,N
1545408355.6,286046997.7,N
1545408375.4,286046995.6,Y
1545408395.2,286046997.2,P
1545408415.1,286046994.9,P
1545408416.0,286046994.9,P
1545408435.8,286046995.5,N
1545408455.6,286046997.5,N
1545408475.5,286046997.4,N
1545408495.3,286046997.3,N
1545408515.2,286046997.2,N
1545408535.0,286046997.6,N
1545408535.9,286046997.6,N
1545408555.7,286046997.5,N
1545408575.6,286046998.0,N
1545408595.4,286046999.6,N
1545408615.3,286046999.5,N
1545408635.1,286046997.8,N
1545408655.8,286046995.6,Y
1545408675.7,286046996.6,P
1545408695.5,286046999.3,N
1545408715.4,286046999.4,N
1545408735.2,286046998.8,N
1545408755.0,286046998.4,N
1545408755.9,286046998.4,N
1545408775.8,286046998.5,N
1545408795.6,286046998.8,N
1545408815.5,286046996.8,Y
1545408835.3,286046999.0,P
1545408855.1,286046998.8,P
1545408875.9,286046999.3,N
1545408895.7,286046998.4,Y
1545408915.5,286047001.0,P
1545408935.4,286047001.1,N
1545408955.2,286046998.7,N
1545408975.1,286046999.0,N
1545408976.0,286046999.0,N
1545408995.8,286047000.0,N
1545409015.6,286047000.9,N
1545409035.5,286047000.9,N
1545409055.3,286047001.2,N
1545409075.1,286047001.1,N
1545409095.9,286047000.0,N
1545409115.7,286046999.8,N
1545409135.6,286047002.7,N
1545409155.4,286047002.7,N
1545409175.2,286046999.7,N
1545409195.1,286047002.4,N
1545409196.0,286047002.4,N
1545409215.8,286047002.8,N
1545409235.7,286047000.4,N
1545409255.5,286046999.9,N
1545409275.3,286047002.0,N
1545409295.2,286046999.7,N
1545409315.0,286047002.0,N
1545409315.9,286047002.0,N
1545409335.7,286047001.9,N
1545409355.6,286047002.4,N
1545409375.4,286046999.7,N
1545409395.3,286047002.8,N
1545409415.1,286047000.1,N
1545409416.0,286047000.1,N
1545409435.8,286047000.4,N
1545409455.4,286046998.2,N
1545409475.2,286047001.2,N
1545409495.0,286047002.7,N
1545409495.9,286047002.7,N
1545409515.8,286047001.4,N
1545409535.6,286047003.1,N
1545409555.5,286047003.3,N
1545409575.3,286047004.3,Y
1545409595.1,286047004.3,P
1545409615.9,286047004.3,N
1545409635.7,286047001.4,N
1545409655.6,286047004.4,N
1545409675.4,286047002.3,N
1545409695.2,286047001.6,N
1545409715.1,286047001.7,N
1545409716.0,286047001.7,N
1545409735.8,286047001.3,N
1545409755.6,286047001.9,N
1545409775.5,286047001.6,N
1545409795.3,286047004.3,Y
1545409815.2,286047000.1,P
1545409835.9,286047000.9,N
1545409855.7,286047000.0,N
1545409875.1,286047001.1,N
1545409876.0,286047001.1,N
1545409895.8,286047000.2,N
1545409915.6,286047000.1,N
1545409935.5,286047000.2,N
1545409955.3,286047001.0,N
1545409975.1,286047000.4,N
1545409995.9,286046998.5,N
1545410015.7,286046998.1,N
1545410035.6,286047000.7,N
1545410055.4,286047001.2,N
1545410075.2,286047000.1,N
1545410095.1,286046999.9,N
1545410096.0,286046999.9,N
1545410115.8,286047000.3,N
1545410135.7,286047000.8,N
1545410155.5,286047000.4,N
1545410175.3,286047000.5,N
1545410195.2,286046998.6,N
1545410215.0,286047001.1,N
1545410215.9,286047001.1,N
1545410235.8,286046998.6,N
1545410255.6,286046998.4,N
1545410275.4,286047000.8,N
1545410295.3,286047000.6,N
1545410315.1,286047000.3,N
1545410335.9,286046998.1,N
1545410355.7,286046998.4,N
1545410375.5,286047000.4,N
1545410395.4,286047001.0,N
1545410415.2,286046998.5,N
1545410435.1,286046998.6,N
1545410436.0,286046998.6,N
1545410455.8,286046999.3,N
1545410475.6,286046999.1,N
1545410495.5,286046999.2,N
1545410515.3,286046999.2,N
1545410535.2,286046996.9,Y
1545410555.9,286046999.4,P
1545410575.7,286046998.3,P
1545410595.6,286046998.5,N
1545410615.4,286046998.2,Y
1545410635.3,286047002.5,P
1545410655.1,286047004.0,N
1545410656.0,286047004.0,N
1545410675.8,286047004.0,N
1545410695.7,286047001.6,N
1545410715.5,286047000.1,N
1545410735.4,286047000.7,N
1545410755.2,286047002.3,N
1545410775.0,286047003.9,N
1545410775.9,286047003.9,N
1545410795.8,286047001.4,N
1545410815.6,286047002.6,N
1545410835.4,286047001.6,N
1545410855.3,286047001.9,N
1545410875.1,286047001.7,N
1545410895.9,286047002.1,N
1545410915.7,286047001.1,N
1545410935.5,286047001.2,N
1545410955.4,286047000.7,N
1545410975.2,286046999.9,N
1545410995.0,286046999.8,N
1545410995.9,286046999.8,N
1545411015.8,286047002.2,N
1545411035.6,286047002.2,N
1545411055.5,286047002.8,N
1545411075.3,286047002.7,N
1545411095.1,286046999.9,N
1545411115.9,286046999.7,N
1545411135.7,286046999.7,N
1545411155.5,286046999.7,N
1545411175.4,286046999.9,N
1545411195.2,286047002.8,N
1545411215.1,286047000.3,N
1545411216.0,286047000.3,N
1545411235.8,286047000.5,N
1545411255.6,286047000.4,N
1545411275.5,286047002.4,N
1545411295.3,286047002.2,N
1545411315.2,286047002.7,N
1545411335.9,286047000.4,N
1545411355.7,286047001.5,N
1545411375.6,286047004.4,Y
1545411395.4,286047002.5,P
1545411415.3,286047000.0,N
1545411435.1,286047000.0,N
1545411436.0,286047000.0,N
1545411455.8,286047000.3,N
1545411475.7,286046998.8,N
1545411495.5,286046998.5,N
1545411515.3,286047001.1,N
1545411535.2,286046999.9,N
1545411555.0,286047000.8,N
1545411555.9,286047000.8,N
1545411575.8,286047000.1,N
1545411595.6,286047000.4,N
